Wind_Speed
8 8 9 9 9 10 10 11 11 12 12 13 13 13 12 10 7 3 3 4 4 3 3 5 1 5 4 5 5 4 4 2 5 6 3 13 5 11 4 15 3 4 9 18 23
9 9 10 10 10 10 10 11 12 12 13 13 13 13 12 10 4 4 5 5 2 2 4 1 5 7 5 4 3 5 3 4 3 4 6 11 11 12 5 10 2 5 10 26 25
10 10 11 11 11 11 11 11 12 12 12 13 13 13 11 8 2 6 8 4 4 7 6 4 6 7 4 3 3 2 3 3 2 4 19 17 10 9 14 3 11 19 25 30 27
10 11 12 12 12 12 12 12 12 12 12 12 12 12 10 4 0 5 8 4 10 8 6 6 7 3 4 4 6 4 5 4 2 7 10 11 13 7 17 6 12 20 24 30 28
11 12 13 13 13 13 13 12 13 12 12 12 12 11 7 4 1 5 5 5 6 6 8 6 11 4 2 3 5 2 3 4 8 8 13 10 8 6 11 4 17 23 25 27 26
12 13 13 14 15 14 14 13 13 13 12 12 12 11 8 3 2 1 2 2 3 5 8 9 5 4 2 1 2 7 9 13 5 3 11 12 3 5 8 14 22 24 26 24 24
14 14 14 15 16 15 14 14 13 12 12 12 12 11 10 8 5 4 2 3 1 2 5 7 6 4 2 3 7 3 4 5 4 6 4 12 2 7 12 22 25 26 26 25 21
14 15 14 15 15 16 15 14 14 13 12 12 11 11 7 5 6 5 1 4 2 1 2 4 5 2 1 4 6 6 6 5 4 5 5 11 7 4 20 28 26 27 28 26 24
14 15 15 15 16 15 14 14 13 12 10 10 9 6 6 3 6 6 5 4 2 2 1 2 2 2 2 4 5 7 1 4 9 3 5 5 6 6 24 26 24 28 28 28 25
15 15 15 15 16 15 13 11 8 7 5 7 9 5 5 1 3 4 6 3 2 7 2 2 3 3 4 5 3 2 4 5 5 6 0 5 1 3 22 22 21 27 28 27 26
15 15 14 14 14 13 9 2 3 3 5 6 3 5 7 3 2 4 6 7 2 2 3 5 5 3 3 2 4 2 2 4 5 4 3 3 3 5 15 15 20 25 28 28 26
16 16 14 13 11 8 6 6 9 6 9 9 14 20 19 16 5 3 10 6 3 1 2 6 2 5 4 4 2 1 2 4 6 6 2 4 2 2 12 21 29 29 30 29 26
16 16 14 11 8 2 5 8 6 4 3 11 12 14 16 11 8 10 12 6 3 3 2 4 3 3 3 2 1 2 4 2 3 5 3 1 5 5 3 12 16 17 22 26 28
16 16 14 8 3 2 6 4 4 3 5 7 4 6 13 10 5 18 17 7 1 7 6 4 4 1 2 4 6 1 5 2 0 4 1 5 3 6 2 8 6 16 23 26 28
15 16 12 8 5 2 3 1 1 1 3 3 3 1 9 15 6 9 18 12 7 5 5 5 3 1 3 4 6 7 3 3 3 4 3 6 4 7 6 7 6 5 22 26 28
14 15 11 9 7 5 4 4 3 5 6 5 1 2 4 4 4 5 11 9 5 3 1 6 4 3 5 1 3 6 5 8 5 3 4 4 3 5 3 5 7 2 14 25 27
15 14 11 8 3 6 5 4 4 4 5 6 2 2 3 2 2 3 6 4 6 4 2 2 3 4 4 3 2 6 7 3 4 5 5 2 2 8 7 5 6 8 19 21 22
15 12 11 7 6 8 6 4 3 4 5 5 4 3 6 7 5 4 5 5 2 4 3 4 4 4 3 5 6 3 6 6 4 3 4 3 2 5 5 15 12 5 14 16 23
15 10 5 4 9 12 7 3 8 6 3 6 8 2 4 2 4 3 8 7 8 7 6 4 4 4 3 3 6 3 3 4 8 3 2 3 6 9 5 7 12 3 16 21 23
12 3 3 3 11 12 4 5 3 3 6 3 2 0 2 3 3 6 7 5 5 11 9 4 0 2 3 4 5 4 6 4 3 4 3 4 4 5 4 6 7 5 2 9 17
4 3 3 8 11 5 4 6 4 7 5 2 2 4 3 2 4 4 7 4 6 4 7 5 3 5 2 1 6 2 3 7 6 4 5 2 6 7 10 5 1 3 3 8 13
3 3 4 11 3 2 3 4 3 4 2 3 2 3 3 4 2 5 8 6 2 11 10 7 5 4 9 3 1 2 5 6 5 4 1 3 5 1 3 4 4 4 3 5 9
3 4 6 2 2 2 5 4 4 2 3 2 4 5 2 3 3 2 3 2 6 9 10 7 0 2 9 6 3 5 3 5 6 4 5 5 5 1 2 2 3 2 0 2 2
2 2 2 2 2 1 3 4 4 6 7 6 5 2 2 2 1 3 3 2 5 3 4 14 4 7 7 7 5 4 4 4 6 4 5 5 5 6 5 7 8 7 1 7 7
4 2 2 2 3 3 3 2 4 5 4 4 3 7 4 3 3 3 2 5 3 5 4 4 7 5 3 5 5 6 6 6 4 6 5 4 7 8 6 7 8 9 3 4 5
3 3 2 2 5 2 2 2 3 4 3 5 4 2 4 5 5 4 1 3 2 5 4 3 3 4 2 2 5 4 2 5 3 5 3 2 7 6 4 7 10 6 1 3 3
5 5 2 4 3 1 1 4 4 5 9 16 9 2 4 2 2 3 3 3 2 2 2 3 5 3 3 3 3 3 4 3 3 1 6 5 8 1 2 2 4 5 4 4 5
Wind_Direction
351 350 349 349 344 344 347 344 342 345 345 344 346 345 342 335 324 324 340 304 288 290 169 201 28 24 52 72 45 70 64 187 196 167 167 152 124 161 183 143 122 195 176 165 162
340 338 341 336 336 338 338 339 338 341 341 339 343 344 343 340 331 360 331 314 304 128 117 276 4 33 49 64 59 76 100 232 190 192 148 168 145 165 145 152 69 134 162 164 166
331 333 330 330 330 331 332 333 332 334 337 336 338 340 341 339 341 11 354 356 99 108 84 55 36 53 79 72 31 151 165 188 288 214 161 157 142 177 139 229 204 172 164 171 171
327 323 323 324 324 325 327 327 328 329 331 331 332 336 338 338 115 359 3 70 108 91 79 71 47 57 52 18 5 357 239 237 335 212 167 162 156 144 172 246 192 181 170 173 179
321 319 319 318 318 319 321 323 323 323 324 325 325 332 343 308 312 346 7 108 90 75 67 88 54 64 45 336 341 133 306 222 326 249 191 182 159 168 209 225 171 169 174 182 187
318 317 316 315 315 316 317 319 314 315 315 316 316 324 323 285 219 320 14 122 85 52 65 61 42 52 95 12 101 315 295 292 343 204 176 169 144 152 219 176 171 175 179 186 194
312 313 314 313 313 314 313 313 309 306 306 307 309 315 298 257 218 235 341 204 245 11 39 47 16 10 349 349 331 294 5 332 208 181 169 136 44 227 196 180 174 185 187 190 197
310 312 314 313 313 311 313 308 304 302 299 299 303 310 271 242 237 240 262 213 187 290 299 21 0 13 27 319 15 35 50 13 303 134 169 156 246 222 181 174 178 189 196 199 200
313 312 312 313 311 311 315 306 304 302 297 290 293 297 279 252 248 249 231 187 256 330 264 323 305 98 79 72 21 7 316 323 318 174 144 175 238 208 183 180 182 193 201 206 210
314 313 311 313 313 317 322 309 302 298 285 282 264 288 245 158 293 270 231 213 308 346 124 124 73 65 43 65 194 305 334 311 245 299 228 171 181 144 185 186 193 198 204 212 217
315 314 313 314 316 327 336 318 287 269 272 242 253 269 282 304 233 229 220 192 273 15 45 20 60 171 198 178 136 150 228 264 266 280 231 203 83 227 177 192 206 211 211 212 222
320 318 316 319 318 333 21 69 43 306 306 273 258 253 256 271 294 225 176 163 129 170 24 19 264 212 183 183 123 250 259 270 289 333 122 9 57 294 173 214 209 206 212 215 222
323 321 319 324 317 309 97 51 12 343 280 288 245 244 240 236 222 220 193 182 132 139 153 154 236 79 186 170 203 223 207 224 221 345 39 59 353 356 274 268 258 228 220 222 226
327 323 322 329 294 270 156 39 6 349 46 277 254 241 202 177 244 222 211 179 120 193 168 225 257 231 310 237 143 252 212 160 30 59 266 26 275 303 244 276 292 192 208 222 227
329 322 326 322 287 248 180 112 10 337 357 251 225 221 182 175 155 199 200 191 163 179 112 243 191 357 337 217 165 215 112 61 67 83 67 3 82 266 343 347 343 214 203 218 228
327 318 320 306 276 226 184 171 156 48 253 329 12 147 120 232 179 112 179 202 197 155 4 235 262 245 213 20 161 136 75 49 53 72 32 291 126 296 314 275 310 210 209 212 217
326 313 304 285 255 186 187 174 53 148 328 321 336 24 165 212 218 135 148 164 159 109 255 304 226 268 209 124 71 77 61 6 5 14 205 313 34 240 274 251 249 234 208 204 206
326 309 293 272 221 184 175 59 183 232 256 296 323 290 191 162 199 159 126 177 210 107 127 149 316 196 183 181 169 98 142 147 179 188 259 310 284 270 261 315 304 231 204 197 204
331 316 297 216 195 185 170 100 205 211 294 329 324 12 329 313 165 145 187 195 197 168 166 141 270 290 222 162 126 181 118 164 104 10 39 283 288 314 329 342 13 96 176 198 202
342 17 84 166 176 177 90 223 243 257 323 357 284 336 329 298 162 155 177 206 207 186 151 215 46 262 287 96 31 160 150 82 16 134 219 293 279 237 278 280 25 20 32 214 215
10 89 88 122 149 170 166 224 266 284 295 299 309 307 282 273 182 212 196 251 204 157 138 134 111 282 332 139 181 139 118 56 110 111 156 189 268 215 207 141 101 310 238 228 218
46 62 122 138 59 26 171 202 308 282 316 307 252 242 255 306 274 216 208 232 159 154 157 192 154 195 235 255 201 197 139 128 120 221 115 150 268 263 241 191 145 233 207 187 230
61 82 149 29 110 315 302 297 271 277 259 263 273 221 9 303 311 229 226 302 353 164 163 182 190 37 339 5 28 84 77 109 102 85 188 134 260 124 307 258 233 280 146 237 302
43 52 74 214 80 105 327 281 279 257 248 234 249 241 309 308 226 274 324 321 5 134 194 143 127 158 190 200 147 126 156 174 120 112 174 219 284 289 205 213 214 206 329 354 341
41 70 54 326 8 12 301 294 306 326 250 233 273 217 180 254 290 299 326 326 18 18 68 109 176 175 250 207 153 162 174 175 140 158 137 228 211 263 239 193 161 146 91 348 345
68 49 15 359 324 19 25 291 309 310 239 279 221 265 176 198 204 217 307 26 324 337 77 14 185 144 66 116 151 135 159 170 108 120 81 129 265 229 280 142 150 156 145 311 289
57 48 12 359 4 31 286 309 285 350 256 245 288 189 131 212 248 322 271 294 316 296 102 83 124 83 175 5 93 36 193 188 139 97 140 173 234 40 268 133 104 94 86 46 359
Height
1529 1528 1527 1526 1524 1522 1521 1519 1517 1515 1513 1511 1509 1508 1506 1504 1503 1502 1502 1502 1499 1499 1498 1497 1499 1498 1499 1500 1501 1502 1518 1526 1518 1518 1512 1510 1514 1518 1516 1516 1520 1521 1520 1521 1524
1529 1529 1526 1526 1524 1522 1520 1519 1517 1514 1512 1511 1509 1508 1506 1504 1503 1503 1503 1500 1499 1499 1499 1498 1496 1497 1498 1500 1502 1503 1520 1512 1506 1504 1506 1509 1511 1516 1517 1518 1520 1521 1521 1522 1525
1528 1526 1526 1525 1523 1521 1520 1518 1516 1514 1512 1511 1509 1508 1506 1504 1504 1503 1502 1500 1499 1499 1499 1498 1497 1498 1500 1501 1503 1506 1512 1506 1505 1504 1502 1506 1511 1514 1515 1520 1516 1516 1520 1522 1524
1526 1526 1524 1523 1522 1521 1519 1518 1516 1514 1513 1511 1509 1508 1505 1505 1510 1503 1502 1501 1501 1501 1500 1499 1498 1498 1501 1503 1503 1507 1502 1503 1504 1503 1505 1506 1509 1512 1513 1511 1511 1515 1518 1522 1524
1526 1525 1524 1522 1520 1519 1518 1516 1514 1513 1512 1511 1509 1507 1506 1505 1505 1504 1503 1503 1502 1502 1500 1500 1500 1501 1504 1503 1503 1504 1502 1502 1503 1504 1504 1507 1508 1512 1514 1512 1513 1516 1521 1523 1525
1525 1523 1522 1520 1518 1517 1516 1514 1513 1512 1511 1510 1509 1507 1507 1507 1503 1503 1503 1504 1503 1503 1502 1501 1502 1502 1503 1503 1504 1504 1501 1499 1500 1501 1502 1507 1511 1512 1514 1512 1515 1517 1519 1522 1525
1524 1522 1520 1518 1517 1515 1514 1513 1511 1510 1510 1509 1508 1506 1505 1503 1502 1503 1503 1504 1504 1504 1504 1503 1503 1503 1502 1502 1503 1502 1503 1501 1501 1501 1502 1504 1514 1512 1512 1513 1515 1519 1520 1522 1526
1522 1519 1517 1516 1514 1513 1512 1510 1509 1509 1508 1508 1507 1505 1502 1501 1501 1502 1503 1504 1504 1504 1504 1503 1503 1503 1503 1503 1502 1507 1509 1521 1500 1500 1502 1505 1521 1507 1509 1510 1514 1516 1519 1522 1523
1519 1517 1516 1514 1513 1511 1510 1508 1507 1506 1506 1506 1506 1504 1501 1500 1500 1501 1502 1503 1505 1504 1503 1503 1504 1504 1504 1510 1520 1520 1528 1522 1512 1498 1500 1504 1511 1503 1507 1510 1512 1514 1516 1519 1522
1517 1516 1515 1513 1511 1509 1508 1506 1505 1505 1505 1504 1503 1506 1500 1500 1499 1499 1500 1502 1503 1503 1503 1503 1503 1507 1511 1519 1541 1528 1528 1523 1522 1503 1499 1503 1505 1504 1506 1509 1511 1512 1515 1518 1520
1516 1515 1513 1511 1510 1508 1507 1505 1507 1506 1503 1502 1502 1501 1499 1499 1498 1498 1499 1501 1502 1503 1506 1504 1513 1518 1511 1512 1515 1517 1523 1526 1513 1501 1502 1505 1505 1504 1507 1510 1510 1510 1512 1514 1517
1513 1512 1511 1509 1509 1508 1508 1506 1509 1511 1504 1498 1497 1497 1497 1499 1500 1498 1499 1501 1502 1507 1505 1513 1519 1508 1508 1510 1512 1517 1522 1522 1510 1503 1501 1505 1508 1503 1504 1501 1499 1502 1508 1513 1516
1511 1510 1509 1508 1508 1509 1509 1510 1509 1508 1507 1494 1492 1492 1494 1496 1497 1497 1499 1500 1502 1507 1509 1517 1509 1505 1505 1507 1512 1514 1519 1514 1515 1509 1507 1509 1517 1511 1503 1502 1503 1506 1509 1512 1513
1510 1509 1508 1507 1510 1508 1510 1510 1509 1509 1519 1498 1490 1487 1489 1492 1494 1494 1496 1499 1501 1507 1510 1510 1503 1504 1505 1508 1509 1518 1505 1506 1510 1520 1535 1519 1550 1519 1509 1509 1501 1501 1504 1507 1510
1509 1507 1506 1506 1506 1508 1510 1509 1510 1511 1541 1491 1487 1486 1485 1489 1488 1488 1492 1496 1501 1503 1508 1509 1503 1504 1507 1502 1501 1511 1502 1508 1514 1527 1528 1532 1546 1525 1511 1508 1505 1502 1501 1504 1506
1507 1505 1504 1505 1505 1507 1509 1509 1512 1527 1537 1495 1485 1485 1487 1486 1486 1488 1491 1495 1497 1500 1502 1504 1499 1499 1498 1496 1497 1501 1508 1521 1531 1539 1556 1541 1543 1536 1523 1515 1508 1503 1502 1501 1502
1505 1503 1503 1504 1505 1506 1508 1510 1527 1535 1500 1496 1491 1487 1488 1489 1488 1487 1493 1497 1506 1518 1515 1504 1500 1494 1493 1499 1500 1506 1526 1561 1556 1567 1563 1539 1542 1530 1511 1507 1505 1502 1499 1501 1505
1503 1501 1500 1501 1503 1505 1507 1512 1527 1510 1506 1492 1489 1487 1491 1486 1488 1488 1494 1503 1497 1501 1518 1520 1523 1497 1490 1495 1504 1510 1520 1556 1561 1574 1559 1540 1540 1524 1505 1501 1499 1497 1500 1504 1504
1500 1498 1498 1499 1501 1504 1507 1526 1519 1509 1497 1496 1491 1490 1490 1484 1484 1487 1496 1500 1494 1495 1513 1520 1514 1493 1490 1490 1494 1513 1523 1521 1554 1562 1560 1551 1532 1511 1503 1501 1502 1502 1499 1499 1501
1498 1497 1498 1498 1500 1503 1508 1517 1508 1501 1498 1496 1499 1491 1494 1489 1490 1492 1496 1487 1489 1487 1488 1500 1515 1496 1490 1490 1496 1498 1507 1532 1544 1559 1558 1555 1545 1537 1509 1505 1509 1505 1506 1506 1505
1498 1498 1500 1500 1502 1504 1515 1514 1505 1499 1499 1498 1497 1496 1491 1489 1490 1495 1492 1482 1480 1484 1487 1497 1505 1506 1495 1497 1504 1508 1516 1530 1537 1549 1564 1566 1549 1510 1505 1507 1508 1505 1505 1505 1506
1498 1501 1502 1503 1505 1510 1512 1506 1502 1498 1497 1496 1494 1495 1492 1487 1487 1492 1490 1481 1476 1478 1491 1490 1504 1518 1506 1493 1493 1494 1505 1515 1541 1543 1557 1555 1540 1500 1501 1504 1507 1505 1505 1505 1505
1500 1502 1504 1504 1513 1513 1507 1504 1501 1498 1497 1495 1494 1491 1488 1490 1493 1483 1480 1475 1475 1477 1484 1488 1508 1526 1516 1504 1495 1499 1503 1512 1522 1534 1548 1551 1537 1503 1503 1504 1503 1505 1505 1507 1507
1502 1506 1505 1505 1507 1509 1508 1505 1503 1494 1495 1493 1491 1489 1489 1489 1488 1484 1483 1475 1474 1474 1474 1477 1502 1508 1525 1508 1500 1505 1502 1507 1511 1534 1541 1536 1516 1501 1502 1501 1502 1504 1508 1509 1509
1504 1508 1510 1511 1508 1509 1510 1506 1504 1501 1493 1491 1488 1487 1488 1493 1488 1486 1481 1479 1476 1474 1475 1479 1497 1500 1495 1494 1494 1497 1499 1501 1503 1511 1517 1513 1518 1500 1495 1501 1502 1505 1508 1508 1507
1507 1509 1510 1510 1509 1507 1510 1505 1503 1499 1496 1490 1490 1484 1485 1490 1486 1487 1485 1483 1482 1476 1478 1483 1499 1493 1497 1492 1493 1496 1494 1498 1498 1506 1506 1510 1512 1492 1493 1498 1501 1504 1507 1509 1509
1509 1509 1511 1512 1510 1510 1510 1508 1501 1500 1489 1488 1486 1484 1484 1485 1483 1482 1482 1481 1481 1480 1482 1487 1496 1503 1511 1500 1497 1512 1500 1497 1499 1500 1503 1513 1497 1493 1494 1496 1501 1506 1508 1509 1509